Temperature
4 5 5 5 5 5 6 7 8 9 8 7 7 6 5 3 2 2 2 2 2 3 3 4 4 4 5 5 5 5 6 6 6 6 6 6 5 5 5 5 5 5 5 4
3 4 5 4 5 5 6 6 7 7 7 6 5 4 3 3 2 2 1 1 1 2 3 3 4 4 4 4 4 5 5 5 5 5 5 5 5 5 4 4 4 4 4 3
4 3 4 4 4 4 5 5 6 7 6 5 4 4 3 2 2 1 1 1 1 2 3 3 3 4 4 4 4 4 4 4 4 5 5 4 4 4 4 4 4 3 3 3
3 3 4 4 3 3 3 3 4 4 4 4 4 2 2 2 1 1 1 1 1 2 2 3 3 3 3 3 3 3 3 3 4 4 4 4 4 4 3 3 3 3 3 2
3 3 3 3 2 1 2 2 2 3 3 2 1 1 1 1 1 1 1 1 1 2 2 2 2 2 3 3 3 3 3 3 3 3 3 3 3 3 3 3 2 2 2 2
2 3 4 3 1 -0 2 3 2 1 1 1 1 4 2 -0 -0 0 0 1 1 1 1 1 2 2 2 2 2 2 2 2 2 2 2 2 2 2 2 2 2 2 1 1
2 3 3 0 -1 0 3 3 0 0 0 0 1 2 -0 -1 -1 -0 -0 0 0 0 1 1 1 1 1 1 1 1 1 1 1 2 2 2 2 2 2 1 1 1 1 1
1 2 2 -1 -1 1 0 -1 -1 -1 -1 -1 -2 -2 -2 -2 -1 -1 -1 -1 -0 -0 -0 -0 0 0 1 1 1 1 1 1 1 1 1 1 1 1 1 1 0 0 -0 -0
-1 -0 -2 -3 -3 -3 -2 -2 -2 -2 -2 -2 -3 -3 -3 -3 -2 -2 -1 -1 -1 -1 -1 -1 -1 -0 -0 -0 -0 -0 0 0 0 0 0 0 0 0 0 -0 -0 -1 -1 -1
-2 -2 -3 -3 -3 -3 -3 -3 -3 -3 -3 -3 -3 -3 -3 -3 -3 -3 -2 -2 -2 -2 -1 -1 -1 -1 -1 -1 -1 -1 -1 -1 -1 -0 -0 -0 -0 -1 -1 -1 -1 -2 -2 -2
-3 -3 -3 -4 -4 -4 -4 -4 -3 -3 -3 -3 -3 -3 -3 -3 -3 -3 -3 -3 -3 -2 -2 -2 -2 -2 -2 -1 -1 -1 -1 -1 -1 -1 -1 -1 -1 -1 -2 -2 -2 -2 -2 -2
-2 -4 -4 -4 -5 -5 -5 -4 -4 -4 -4 -4 -3 -4 -4 -4 -4 -4 -3 -3 -3 -3 -2 -2 -2 -2 -2 -2 -2 -2 -2 -2 -2 -2 -2 -2 -2 -2 -2 -2 -2 -2 -2 -3
-6 -6 -6 -6 -6 -5 -5 -5 -4 -4 -4 -4 -4 -4 -4 -4 -4 -4 -4 -4 -3 -3 -3 -3 -3 -3 -3 -3 -3 -3 -3 -3 -3 -3 -3 -3 -3 -3 -3 -3 -3 -3 -3 -3
-6 -6 -6 -6 -6 -5 -5 -5 -5 -5 -5 -4 -5 -5 -5 -5 -5 -4 -4 -4 -4 -4 -4 -4 -4 -4 -4 -4 -4 -4 -3 -3 -3 -3 -3 -3 -4 -4 -4 -3 -3 -3 -3 -3
-6 -6 -6 -6 -6 -6 -6 -5 -5 -5 -5 -5 -5 -5 -5 -5 -5 -5 -5 -5 -4 -4 -4 -4 -4 -4 -4 -4 -4 -4 -4 -4 -4 -4 -4 -4 -4 -4 -4 -4 -4 -4 -4 -4
-6 -6 -6 -6 -6 -6 -6 -6 -6 -6 -6 -6 -6 -6 -6 -5 -5 -5 -5 -5 -5 -5 -5 -5 -5 -5 -5 -5 -5 -5 -5 -5 -5 -5 -5 -5 -5 -5 -5 -5 -5 -5 -5 -5
-7 -7 -7 -7 -6 -6 -6 -6 -6 -6 -6 -6 -6 -6 -6 -6 -6 -6 -6 -6 -6 -6 -6 -5 -5 -6 -6 -6 -6 -6 -6 -6 -6 -6 -6 -6 -5 -6 -6 -6 -6 -6 -5 -5
-6 -6 -6 -6 -7 -7 -7 -7 -7 -7 -7 -7 -7 -7 -7 -7 -7 -7 -6 -6 -6 -6 -6 -6 -6 -6 -6 -6 -6 -6 -6 -6 -6 -6 -6 -6 -6 -6 -6 -6 -6 -6 -6 -6
-7 -6 -7 -7 -7 -7 -7 -7 -7 -7 -7 -7 -7 -7 -7 -7 -7 -7 -7 -7 -7 -7 -7 -7 -7 -7 -7 -7 -7 -7 -7 -7 -7 -7 -7 -7 -7 -7 -7 -7 -7 -7 -7 -6
-7 -7 -7 -7 -7 -7 -7 -7 -7 -8 -8 -8 -8 -8 -7 -7 -7 -7 -7 -7 -7 -7 -7 -7 -7 -7 -7 -7 -7 -7 -7 -7 -7 -7 -7 -7 -7 -7 -7 -7 -7 -7 -7 -7
-7 -7 -7 -7 -7 -8 -8 -8 -8 -8 -8 -8 -8 -8 -8 -8 -8 -8 -8 -8 -7 -8 -8 -8 -8 -8 -8 -8 -8 -8 -8 -8 -8 -8 -8 -8 -8 -8 -8 -8 -8 -8 -7 -7
-8 -8 -8 -8 -8 -8 -8 -8 -8 -8 -8 -8 -8 -8 -8 -8 -8 -8 -8 -8 -8 -8 -8 -8 -8 -8 -8 -8 -8 -8 -8 -8 -8 -8 -8 -8 -8 -8 -8 -8 -8 -8 -8 -8
-8 -8 -8 -8 -8 -8 -8 -8 -8 -8 -8 -8 -8 -8 -8 -8 -8 -8 -8 -8 -9 -9 -9 -9 -9 -9 -9 -9 -9 -9 -8 -8 -8 -8 -8 -8 -8 -8 -8 -8 -8 -8 -8 -8
-8 -8 -9 -9 -9 -9 -9 -9 -9 -9 -9 -9 -9 -9 -9 -9 -9 -9 -9 -9 -9 -9 -9 -9 -9 -9 -9 -9 -9 -9 -9 -9 -8 -8 -8 -8 -8 -8 -8 -8 -8 -8 -8 -8
-9 -9 -9 -9 -9 -9 -9 -9 -9 -9 -9 -9 -9 -9 -9 -9 -9 -9 -9 -9 -9 -9 -9 -9 -9 -9 -9 -9 -9 -9 -9 -9 -9 -9 -8 -8 -8 -8 -8 -8 -8 -8 -8 -8
-9 -9 -9 -9 -9 -9 -9 -9 -9 -9 -9 -9 -9 -10 -10 -10 -10 -10 -10 -10 -9 -9 -9 -9 -9 -9 -9 -9 -9 -9 -9 -9 -9 -9 -9 -8 -8 -8 -8 -8 -8 -8 -8 -8
-9 -9 -9 -9 -10 -10 -10 -10 -10 -10 -10 -10 -10 -10 -10 -10 -10 -10 -10 -10 -10 -10 -10 -10 -10 -10 -10 -9 -9 -9 -9 -9 -9 -9 -9 -9 -8 -8 -8 -8 -8 -8 -8 -8
Wind_Speed
2 2 6 8 10 10 9 8 9 8 8 6 4 3 2 3 3 3 3 3 3 4 3 4 4 5 5 5 5 6 6 6 5 5 4 4 4 4 3 3 3 3 3 3
1 1 3 5 8 11 11 10 8 7 7 4 2 2 3 3 4 4 3 3 3 3 3 4 4 4 4 5 5 6 6 5 4 4 4 4 3 3 3 2 2 2 3 3
2 1 2 4 6 8 8 7 8 9 6 4 4 4 4 5 4 4 4 3 2 3 3 3 3 4 4 5 5 5 5 5 4 4 4 3 3 3 2 2 2 2 2 3
1 2 5 1 0 3 5 5 5 4 3 4 4 3 2 3 4 4 4 3 2 2 2 3 3 3 4 4 5 5 4 4 4 3 3 3 3 2 2 2 2 2 2 2
2 3 2 1 0 1 3 3 2 4 3 2 3 3 2 1 3 3 3 3 2 2 3 4 4 4 4 5 4 4 4 3 2 2 3 2 2 2 1 1 1 1 2 2
2 3 3 1 2 3 2 3 1 2 4 4 5 5 3 2 2 3 3 3 3 4 4 5 4 4 5 5 4 3 3 2 2 2 2 2 2 1 1 1 1 1 1 2
3 3 1 3 4 1 5 1 1 1 2 4 3 1 3 3 3 4 5 5 5 5 5 4 4 4 5 4 3 2 2 2 2 2 2 2 1 1 1 1 0 0 1 2
2 4 2 4 1 1 2 3 1 0 0 1 3 5 5 5 5 6 6 6 5 5 5 4 4 4 5 4 3 2 2 2 2 2 2 1 2 1 1 1 0 0 1 2
1 1 2 2 1 2 2 1 1 1 2 3 4 5 5 5 5 6 6 5 5 5 5 4 4 4 4 3 2 2 2 2 2 2 2 1 1 1 1 1 0 1 1 2
1 1 2 3 3 3 2 2 2 2 2 4 4 5 5 5 5 5 5 5 4 5 5 4 4 4 4 3 2 2 2 2 1 1 2 2 1 1 1 1 1 1 2 2
1 2 2 3 4 3 3 3 3 3 3 3 5 5 5 5 5 4 4 4 4 4 4 4 3 4 4 3 3 2 2 2 1 1 1 1 1 1 1 1 2 3 3 3
1 1 1 2 3 4 3 3 3 3 3 3 4 5 5 4 4 4 4 3 3 4 3 3 3 3 3 3 2 2 2 2 1 1 1 1 1 2 2 2 4 4 4 5
2 2 1 1 2 3 2 2 2 3 3 3 3 4 5 4 4 4 3 3 3 3 3 3 3 3 3 3 2 2 2 2 1 1 1 1 1 2 2 3 3 3 4 5
1 0 0 1 1 2 3 3 4 4 4 4 3 4 4 4 4 4 3 2 2 2 2 2 2 2 2 2 2 2 2 2 2 1 1 2 2 2 2 3 3 3 3 5
2 1 1 1 2 3 3 3 4 4 4 4 4 4 4 4 3 3 2 2 2 2 2 2 2 2 3 2 2 2 2 1 2 2 2 2 2 2 3 3 3 3 4 4
2 2 2 2 2 2 3 3 3 3 3 3 3 3 3 3 3 2 2 2 1 1 1 2 2 3 3 2 2 2 2 2 3 2 2 2 2 2 3 3 3 3 3 4
1 1 1 1 1 1 2 2 1 1 1 1 1 2 3 3 2 2 2 1 1 1 1 2 2 2 2 2 2 2 2 2 3 3 2 2 2 3 3 3 3 3 3 4
1 1 1 1 1 1 1 1 1 1 1 1 2 2 2 2 1 1 1 1 1 1 2 2 2 2 2 2 2 1 2 2 2 2 2 3 3 3 3 3 3 4 4 4
1 1 1 1 1 1 1 1 1 1 1 1 2 1 1 1 0 0 1 0 1 1 2 2 3 3 2 2 2 1 2 2 2 2 3 3 3 3 3 3 3 4 4 4
1 1 1 1 1 1 0 0 1 1 1 1 1 1 1 0 0 0 1 1 2 2 3 3 3 2 2 2 3 2 2 3 3 3 3 3 3 3 3 3 4 4 4 4
0 0 0 0 1 1 0 0 0 0 0 0 1 1 1 1 1 1 1 1 2 2 3 3 3 2 2 2 3 2 2 2 3 3 3 3 3 3 3 3 4 4 4 4
1 1 1 1 0 1 1 1 1 1 1 0 1 1 1 1 2 2 2 2 3 3 3 3 2 3 3 3 2 2 2 2 3 3 3 3 3 3 3 4 4 4 4 4
2 2 2 1 1 1 1 1 1 1 1 1 2 2 2 2 2 2 2 2 2 4 3 3 3 4 4 3 2 2 3 3 3 3 3 3 3 3 4 4 4 4 4 4
2 2 2 1 1 1 1 1 1 1 2 2 2 3 3 2 2 2 3 4 4 5 3 4 5 5 4 2 2 2 3 3 3 3 3 3 3 3 4 4 4 4 4 5
2 2 1 2 2 2 2 1 1 1 2 2 2 2 2 3 3 3 3 3 4 5 3 4 5 5 3 2 3 3 3 3 3 3 3 3 3 3 3 4 4 4 4 4
2 2 2 2 2 2 1 1 1 1 1 2 2 2 2 2 3 3 3 3 4 4 3 3 3 3 2 2 2 2 2 3 3 3 3 3 4 4 4 4 4 4 4 4
1 1 1 1 2 2 2 2 2 2 2 2 3 3 3 2 2 2 3 2 3 2 2 2 2 2 2 2 2 2 2 2 3 3 3 3 3 3 4 4 4 4 4 4
Wind_Direction
284 251 194 199 200 202 211 220 224 229 230 233 229 211 182 154 137 125 122 120 117 116 116 118 122 130 136 141 146 149 152 152 155 159 160 162 165 169 172 180 192 202 209 219
268 207 190 205 213 213 220 224 229 232 248 236 202 179 180 175 157 150 151 145 132 122 119 121 123 123 129 135 141 145 145 146 144 145 145 151 158 162 167 180 188 195 209 224
211 208 169 217 217 211 211 222 218 229 234 195 197 190 185 178 171 165 160 154 145 133 130 126 127 129 129 134 134 134 134 134 136 138 137 141 148 155 168 181 188 202 218 233
166 169 209 178 156 216 208 233 240 236 221 210 208 187 177 173 169 162 155 153 147 126 116 110 111 116 118 119 122 120 119 123 127 132 134 135 141 155 169 182 193 215 235 246
186 205 242 234 129 208 213 234 274 233 207 178 150 143 144 129 155 156 151 139 135 130 124 115 108 111 114 111 112 110 108 107 113 129 132 133 137 150 166 181 205 228 243 254
193 207 218 78 356 315 227 231 295 208 190 186 185 204 203 145 130 126 115 113 110 114 114 111 105 107 108 108 109 102 97 96 100 120 135 139 142 148 160 187 212 242 267 279
219 222 242 358 327 246 196 251 27 197 190 186 218 231 123 113 103 106 100 95 97 103 101 98 98 100 99 95 88 80 84 89 86 96 109 121 122 117 138 152 173 243 287 307
217 214 227 5 40 187 330 348 359 83 109 113 94 96 108 110 105 100 95 93 93 94 87 82 83 92 91 77 60 63 79 83 83 84 89 101 102 89 90 123 145 319 309 318
246 260 357 358 323 319 325 335 5 21 80 109 109 112 110 105 104 101 99 94 91 94 87 73 67 75 81 61 51 65 82 82 78 76 75 79 86 69 48 45 328 304 303 307
249 296 317 339 345 1 27 41 33 61 107 122 123 123 117 113 108 105 101 99 98 96 88 73 62 61 65 55 48 66 83 81 78 74 62 51 46 39 19 323 291 289 299 301
242 278 322 357 359 7 38 56 60 59 75 113 128 129 128 121 115 109 102 97 96 94 87 73 62 60 55 51 53 62 67 69 59 50 44 28 7 333 299 280 288 284 283 288
259 297 291 322 349 3 25 38 58 73 72 87 116 127 125 119 116 113 104 96 92 87 82 69 59 50 41 38 48 57 52 38 28 13 4 349 328 323 325 306 316 313 305 299
281 331 336 304 345 12 27 30 52 74 91 94 105 122 124 119 114 108 102 94 91 88 82 69 52 36 26 25 32 40 31 7 358 345 333 319 313 309 318 334 333 322 318 320
294 341 65 345 22 31 50 60 70 75 81 90 105 113 116 115 110 102 92 81 78 77 73 65 46 24 13 11 16 19 11 359 345 329 315 301 296 294 292 300 312 319 322 323
349 352 178 91 70 59 63 81 81 74 75 77 88 103 110 111 105 93 81 75 71 65 54 41 27 7 359 0 3 355 348 346 336 324 313 302 298 293 289 289 291 300 312 317
18 75 102 97 76 61 64 71 76 67 67 76 80 91 98 104 102 92 76 66 69 43 13 6 353 346 348 349 347 340 341 341 327 314 307 302 297 293 290 289 290 294 301 308
121 130 141 124 65 41 47 56 77 80 75 81 87 98 103 104 98 82 63 50 43 2 337 331 329 334 336 335 329 322 323 326 325 308 299 296 293 288 285 284 286 292 294 303
231 214 196 195 186 151 61 53 75 86 82 97 103 104 107 113 113 72 25 27 34 12 346 332 327 326 323 325 319 307 304 304 306 301 298 297 295 292 289 286 289 291 297 303
86 115 120 135 164 154 126 51 53 65 76 101 107 106 110 116 116 347 339 352 353 335 329 334 327 319 311 309 307 294 289 287 289 291 292 295 297 294 290 290 292 295 298 300
65 77 87 73 62 114 110 46 68 65 56 95 114 117 98 15 341 326 334 317 305 297 300 308 312 307 300 296 296 279 275 275 280 287 292 293 294 294 292 292 294 294 295 296
119 107 98 53 27 24 349 295 193 171 331 11 171 195 249 295 303 289 283 301 311 306 301 303 304 297 296 288 285 274 272 273 276 279 283 286 288 289 291 293 294 294 294 295
252 252 247 251 258 315 322 307 251 241 268 276 264 247 250 274 289 295 277 272 289 303 307 299 294 291 290 289 280 275 272 272 275 276 275 278 280 283 287 291 290 292 292 292
249 246 242 245 240 253 306 307 267 243 255 261 259 255 257 268 274 270 285 289 293 298 299 290 291 295 298 296 282 276 273 271 272 272 272 273 276 278 282 286 288 289 291 293
243 246 245 238 203 199 253 282 284 277 268 271 268 263 260 265 274 266 266 282 293 294 292 290 295 297 298 289 276 273 271 269 269 270 272 274 276 277 278 281 286 289 290 292
231 235 228 208 208 226 238 257 275 277 278 278 280 272 262 256 259 271 276 276 284 291 292 293 296 297 292 279 272 269 268 268 270 271 271 273 275 276 279 282 284 286 288 290
224 226 234 238 240 241 238 238 249 267 275 282 288 286 278 266 260 264 268 270 273 284 286 286 289 291 282 273 271 270 268 273 278 276 271 272 274 276 279 283 287 289 290 291
217 224 232 242 243 234 230 232 242 256 260 265 277 283 282 277 271 269 271 272 275 278 279 284 286 282 278 273 272 275 275 274 272 270 270 271 274 277 281 282 286 290 293 294
Height
1443 1442 1443 1444 1447 1449 1449 1446 1444 1440 1445 1448 1452 1455 1457 1459 1460 1460 1461 1462 1462 1463 1464 1466 1467 1469 1471 1474 1476 1478 1481 1484 1486 1488 1491 1492 1494 1496 1497 1498 1498 1499 1499 1499
1447 1445 1444 1446 1446 1446 1447 1447 1445 1446 1448 1451 1454 1457 1458 1459 1460 1460 1461 1461 1462 1463 1464 1465 1467 1469 1470 1472 1475 1477 1479 1481 1483 1485 1487 1489 1491 1492 1493 1494 1494 1495 1495 1495
1443 1446 1444 1445 1447 1446 1446 1446 1446 1444 1447 1452 1454 1456 1457 1458 1459 1460 1460 1461 1462 1462 1463 1465 1467 1468 1470 1472 1474 1475 1477 1479 1481 1483 1485 1486 1488 1489 1490 1490 1491 1491 1492 1492
1446 1447 1444 1447 1450 1449 1449 1450 1449 1449 1450 1452 1453 1456 1457 1458 1459 1459 1460 1460 1461 1462 1463 1465 1466 1468 1470 1471 1473 1474 1476 1477 1479 1481 1482 1484 1485 1486 1487 1487 1488 1488 1488 1488
1446 1442 1441 1448 1451 1451 1449 1449 1451 1450 1451 1453 1455 1455 1457 1458 1458 1459 1459 1460 1461 1462 1463 1464 1466 1467 1469 1470 1472 1473 1474 1476 1477 1479 1480 1481 1482 1483 1483 1484 1485 1485 1485 1485
1446 1440 1438 1447 1452 1452 1452 1448 1451 1451 1451 1452 1453 1451 1455 1457 1457 1458 1459 1460 1461 1462 1463 1464 1466 1467 1468 1469 1471 1472 1473 1475 1476 1477 1478 1479 1480 1480 1481 1481 1481 1482 1482 1482
1446 1443 1443 1454 1454 1452 1450 1447 1452 1452 1451 1452 1451 1451 1454 1455 1456 1457 1458 1459 1460 1462 1463 1464 1465 1467 1468 1469 1470 1471 1472 1473 1474 1475 1476 1477 1477 1478 1478 1478 1479 1479 1479 1479
1448 1444 1448 1456 1453 1453 1452 1453 1452 1452 1452 1452 1452 1452 1453 1455 1455 1456 1457 1459 1461 1462 1463 1465 1466 1467 1467 1469 1470 1471 1471 1472 1473 1473 1474 1474 1475 1475 1476 1476 1476 1476 1476 1476
1455 1455 1457 1457 1456 1455 1454 1454 1453 1453 1453 1452 1452 1453 1454 1455 1456 1457 1458 1460 1461 1462 1463 1465 1466 1467 1467 1468 1469 1470 1470 1471 1471 1472 1472 1473 1473 1473 1473 1474 1474 1473 1473 1473
1459 1458 1458 1457 1456 1455 1454 1454 1453 1453 1453 1452 1452 1453 1454 1455 1456 1457 1459 1460 1461 1463 1464 1465 1466 1467 1467 1468 1468 1469 1469 1470 1470 1470 1471 1471 1471 1471 1471 1471 1471 1471 1471 1470
1458 1459 1458 1457 1457 1456 1455 1454 1454 1453 1453 1453 1453 1454 1455 1455 1457 1458 1459 1461 1462 1463 1464 1465 1466 1467 1467 1467 1468 1468 1468 1469 1469 1469 1469 1469 1470 1470 1469 1469 1469 1469 1469 1468
1456 1459 1459 1459 1458 1457 1456 1455 1454 1453 1453 1454 1454 1454 1455 1456 1457 1459 1460 1461 1462 1464 1464 1465 1466 1466 1466 1467 1467 1467 1467 1467 1467 1467 1467 1467 1467 1467 1467 1467 1467 1467 1466 1466
1460 1459 1459 1458 1458 1457 1456 1455 1455 1454 1454 1454 1455 1455 1456 1457 1458 1459 1460 1461 1462 1463 1464 1465 1465 1465 1465 1465 1465 1466 1466 1466 1466 1466 1465 1465 1465 1464 1464 1464 1464 1464 1463 1462
1459 1459 1458 1458 1458 1457 1456 1455 1455 1455 1455 1455 1455 1456 1456 1457 1458 1459 1460 1461 1462 1463 1463 1464 1464 1464 1464 1464 1464 1464 1464 1464 1463 1463 1463 1463 1463 1462 1462 1461 1461 1460 1460 1459
1459 1458 1458 1458 1457 1457 1456 1456 1455 1455 1455 1455 1456 1456 1456 1457 1458 1459 1460 1461 1461 1462 1462 1463 1463 1463 1463 1463 1463 1462 1462 1462 1461 1461 1461 1461 1460 1460 1459 1459 1458 1457 1457 1456
1458 1458 1458 1458 1457 1457 1457 1456 1456 1455 1456 1456 1456 1456 1457 1457 1458 1459 1459 1460 1461 1461 1461 1461 1461 1461 1461 1461 1461 1460 1460 1459 1459 1459 1458 1458 1458 1457 1457 1456 1455 1455 1454 1453
1458 1458 1458 1458 1457 1457 1457 1457 1456 1456 1456 1456 1456 1456 1457 1457 1457 1458 1458 1459 1459 1460 1460 1460 1460 1460 1459 1459 1459 1458 1458 1457 1457 1456 1456 1455 1455 1455 1454 1453 1453 1452 1451 1451
1458 1458 1458 1458 1457 1457 1457 1457 1456 1456 1456 1456 1456 1456 1456 1456 1457 1457 1457 1458 1458 1458 1458 1458 1458 1458 1457 1457 1457 1456 1455 1455 1454 1454 1453 1453 1452 1452 1451 1450 1450 1449 1448 1448
1457 1457 1457 1457 1457 1457 1456 1456 1456 1456 1456 1456 1456 1456 1456 1456 1456 1456 1456 1456 1456 1456 1456 1456 1456 1455 1455 1455 1454 1454 1453 1453 1452 1452 1451 1450 1450 1449 1449 1448 1447 1446 1445 1444
1457 1457 1457 1456 1456 1456 1456 1456 1455 1455 1455 1455 1455 1455 1455 1455 1455 1455 1455 1454 1454 1454 1454 1454 1453 1453 1452 1452 1452 1451 1451 1450 1450 1449 1449 1448 1447 1447 1446 1445 1444 1444 1443 1442
1456 1456 1456 1455 1455 1455 1455 1455 1455 1454 1454 1454 1454 1454 1454 1454 1454 1453 1453 1452 1452 1452 1451 1451 1451 1450 1450 1450 1449 1449 1448 1448 1447 1447 1446 1446 1445 1444 1444 1443 1442 1441 1440 1439
1455 1455 1455 1454 1454 1454 1454 1454 1453 1453 1453 1453 1453 1452 1452 1452 1452 1451 1451 1451 1450 1450 1449 1449 1448 1448 1448 1447 1447 1446 1446 1445 1445 1445 1444 1444 1443 1442 1441 1441 1440 1439 1438 1437
1453 1453 1453 1453 1452 1452 1452 1452 1452 1452 1451 1451 1451 1451 1450 1450 1450 1449 1448 1448 1448 1447 1447 1446 1446 1445 1445 1445 1444 1444 1443 1443 1442 1442 1442 1441 1441 1440 1439 1438 1437 1436 1435 1434
1451 1451 1451 1451 1451 1450 1450 1450 1450 1450 1449 1449 1449 1449 1448 1448 1447 1447 1446 1446 1445 1444 1444 1443 1443 1443 1442 1442 1441 1441 1441 1440 1440 1440 1439 1439 1438 1438 1437 1436 1435 1434 1433 1432
1449 1449 1449 1449 1449 1448 1448 1448 1448 1448 1447 1447 1446 1446 1446 1445 1445 1444 1443 1443 1442 1442 1441 1441 1440 1440 1440 1439 1439 1439 1438 1438 1438 1437 1437 1436 1436 1435 1434 1433 1433 1432 1431 1430
1447 1447 1447 1447 1447 1446 1446 1446 1445 1445 1445 1444 1444 1443 1443 1442 1442 1441 1441 1440 1440 1439 1438 1438 1438 1437 1437 1437 1437 1436 1436 1436 1435 1435 1434 1434 1433 1433 1432 1431 1430 1430 1429 1428
1445 1445 1445 1444 1444 1444 1444 1443 1443 1443 1442 1441 1441 1440 1440 1440 1439 1439 1438 1437 1437 1436 1436 1435 1435 1435 1435 1434 1434 1434 1434 1433 1433 1433 1432 1432 1431 1430 1430 1429 1428 1428 1427 1426